Погода Аул Турара Рыскулова

Погода Аул Турара Рыскулова : погода сейчас, прогноз погоды и архив. Всё, что Вы хотите узнать о погоде Аул Турара Рыскулова!

Поиск расширенной информации на нашем сайте:

Другие новости

Новости СМИ2

Главная страница сайта

Новости сайта

03.07.2017

Напоминаем, что на нашем специализированном сайте Метеоцентр.Азия вы можете получить высокодетализированные автоматические прогнозы погоды по пунктам России, СНГ и мира в авиационном формате (включающие направление и скорость ветра, видимость, явления погоды, количество и форму облачности, нижнюю и верхнюю границу облачности).


Погода Аул Турара Рыскулова - сегодня

Время (UTC), дата Ветер
(°,м/с) 
Видим.   Явления Облачность Т
(°С)
Тd
(°С)
f(%) Тe
(°С)
Pmin
(гПа)
dP
(гПа)
Po
(мм)
O2
(г/м3)
Тmin Tmax R s Состояние
почвы
12 20.10.17 090 (В) 20000 м    ясно 
+14.5 +2.7 45 +15  1019.5  -1  696  266           
15 20.10.17 140 (ЮВ) 20000 м    3/0 верхняя 
[Ci sp]
+12.4 +1.3 47 +13  1019.1  -1  695  267    +18       
18 20.10.17 130 (ЮВ) 20000 м    ясно 
+8.6 +1.9 63 +9  1018.1  -2.1  693  270    +18       
21 20.10.17 100 (В) 20000 м    ясно 
+8 +1.7 64 +9  1016.8  -1.4  692  271           
00 21.10.17 060 (СВ) 20000 м    ясно 
+7.2 +0.9 64 +7  1016.4  -0.6  692  271           
03 21.10.17 080 (В) 20000 м    10/0 верхняя 
[Ci sp]
+7.8 +1.9 66 +9  1016.7  0.4  692  271           
06 21.10.17 290 (З) 20000 м    10/0 верхняя 
[Ci sp]
+16.2 +1.9 38 +18  1013.9  0.1  692  263  +6         
09 21.10.17 280 (З) 10 км    10/0 верхняя 
[Ci sp]
+16.6 +3.4 41 +17  1012.8  -0.8  692  262           
12 21.10.17 320 (СЗ) 10 км    10/0 средняя, верхняя 
[Ac lent|Ci sp]
+13.2 +4.8 57 +14  1015.3  1.3  692  265           
15 21.10.17 280 (З) 10 км    4/0 верхняя 
[Ci sp]
+8.2 +4.8 79 +9  1019.2  694  271    +19.5       
18 21.10.17 040 (СВ) 10 км    3/0 верхняя 
[Ci fib]
+9.4 +3.4 66 +9  1019.4  0.5  694  270    +19.5       
21 21.10.17 030 (СВ) 10 км    ясно 
+7.2 +3.2 76 +7  1019.6  -0.5  694  272           
00 22.10.17 060 (СВ) 10 км    ясно 
+6.5 +2.4 75 +7  1020.3  0.3  694  273           
03 22.10.17 110 (В) 20000 м    ясно 
+6.4 +2 73 +7  1020.8  0.4  695  273           
06 22.10.17 тихо ()   20000 м    ясно 
+14 +1.5 43 +14  1017.9  -0.3  694  266  +4.8         
09 22.10.17 320 (СЗ) 20000 м    ясно 
+16.4 +2.1 38 +17  1015.4  -1.5  693  263           
12 22.10.17 250 (З) 2000 м  мгла  ясно 
+15 +4 48 +16  1015.2  -0.6  693  264           
15 22.10.17 110 (В) 4000 м  дымка  3/0 верхняя 
[Ci fib]
+9.9 +4 67 +10  1016.9  0.1  693  269    +19       
18 22.10.17 070 (В) 4000 м  мгла  ясно 
+8.8 +2.7 66 +10  1016.3  -1  692  270    +19       
21 22.10.17 тихо ()   10 км    ясно 
+7.5 +2.5 71 +8  1015.5  -1.1  691  271           
00 23.10.17 120 (ЮВ) 20000 м    ясно 
+9.7 +0.9 54 +11  1014.8  691  269           
03 23.10.17 тихо ()   20000 м    8/0 верхняя 
[Ci sp]
+10 +1.1 54 +10  1015.1  0.4  692  268           
06 23.10.17 300 (СЗ) 20000 м    1/0 верхняя 
[Ci sp]
+16.4 +0.2 33 +18  1013.1  0.1  692  263  +7         
09 23.10.17 300 (СЗ) 4000 м  мгла  3/1 1000 м верхняя 
[Cu med, cong|Ci sp]
+19 +2.9 34 +20  1011.9  -0.3  691  260           
12 23.10.17 360 (С) 2000 м  мгла  ясно 
+14 +6.1 59 +15  1014.2  0.7  692  264           
Время (UTC), дата Ветер
(°,м/с) 
Видим.   Явления Облачность Т
(°С)
Тd
(°С)
f(%) Тe
(°С)
Pmin
(гПа)
dP
(гПа)
Po
(мм)
O2
(г/м3)
Тmin Tmax R s Состояние
почвы

Для получения пояснительной информации подведите курсор к названию столбца.

ПОГОДА Аул Турара Рыскулова - архив

Всё, что Вы хотите узнать о погоде Аул Турара Рыскулова - удобно и подробно!

Выберите нужную дату (начиная с 1 января 2015* года) и нажмите кнопку "Найти".
Будут отображены архивные сводки погоды по пункту Аул Турара Рыскулова, начиная с указанной даты.


Отображать данные в формате CSV (для использования в таблицах Excel)


Внимание! Наш архив погоды предназначен исключительно для личного некоммерческого использования в познавательных целях. Если Вам необходимы официальные справки о состоянии погоды (для производственных, юридических, коммерческих и т.п. целей), обращайтесь в органы Росгидромета.

*Примечание: данная дата относится к архиву по метеостанциям СССР (Россия, СНГ, Балтия).
Архив по метеостанциям Зарубежной Европы и Азии (кроме Китая) хранится 10 дней, по другим регионам земного шара (Китай, Африка, Америка, Австралия, Океания) - 1 день.

Аул Турара Рыскулова - район местоположения метеостанции


Название, широта, долгота, высота метеостанции:
Аул Турара Рыскулова (Тюлькубас) 42.5°ш. 70.3°д. 808 м над ур. моря [Казахстан]

Дополнительная информация

В oтличие oт бoльшинства пoгoдных сайтoв мы публикуем пoдрoбную метеoинфoрмацию в детальнoм прoфессиoнальнoм фoрмате.

Характеристики температуры и влажнoсти вoздуха измеряются на высoте 2 м в тени вдали oт зданий и деревьев.
Скoрoсть ветра измеряется на высoте 10 м (на урoвне рoста челoвека скoрoсть ветра ниже в 1.5-2 раза). Если метеoстанция нахoдится в гoрoде или в лесу, тo скoрoсть ветра занижена на 2-4 м/с пo сравнению с oткрытым местoм. Скoрoсть ветра над акватoриями крупных рек и oзёр, а также на вершинах хoлмoв на 2-5 м/с выше, чем в oбычных услoвиях.
Атмoсфернoе давление в разных тoчках местнoсти мoжет значительнo oтличаться oт давления на метеoстанции, в зависимoсти oт услoвий рельефа (при пoдъёме на 10 м давление пoнижается примернo на 1 мм рт.ст.).